Regional Weather Roundup
Issued by NWS Little Rock, AR

Home | Current Version | Previous Version | Text Only | Print | Product List | Glossary On
Versions: 1 2 3 4 5 6 7 8 9 10 11 12 13 14 15 16 17 18 19 20 21 22 23 24 25 26 27 28 29 30 31 32 33 34 35 36 37 38 39 40 41 42 43 44 45 46 47 48 49 50
687
ASUS44 KLZK 231905
RWRLZK

WEATHER ROUNDUP FOR ARKANSAS
NATIONAL WEATHER SERVICE LITTLE ROCK AR
200 PM CDT MON APR 23 2018

NOTE: "FAIR" INDICATES FEW OR NO CLOUDS BELOW 12,000 FEET WITH NO
SIGNIFICANT WEATHER AND/OR OBSTRUCTIONS TO VISIBILITY.

ARZ001-003-010-029-232000-
NORTHWEST ARKANSAS

CITY           SKY/WX    TMP DP  RH WIND       PRES   REMARKS
FAYETTEVILLE   CLOUDY    64  51  62 NW15      29.99S
FORT SMITH     PTSUNNY   69  55  60 NW13G21   29.98F
HARRISON       CLOUDY    68  48  48 N16G25    29.92F
BENTONVILLE    MOSUNNY   66  49  54 N12       30.00F
ROGERS         PTSUNNY   66  49  54 N13G18    29.99F
SILOAM SPGS    SUNNY     66  51  58 N14G20    30.01F
HIGHFILL       MOSUNNY   68  50  52 N12G23    30.00S
SPRINGDALE     CLOUDY    64  52  63 N12       30.00S
$$

ARZ004-005-016-232000-
NORTH CENTRAL ARKANSAS

CITY           SKY/WX    TMP DP  RH WIND       PRES   REMARKS
BATESVILLE     CLOUDY    56  51  84 NW3       29.91S
FLIPPIN        CLOUDY    68  51  54 N15G23    29.90F
MTN HOME       CLOUDY    65  50  58 NE9G20    29.89F
$$

ARZ040-041-232000-
WEST CENTRAL ARKANSAS

CITY           SKY/WX    TMP DP  RH WIND       PRES   REMARKS
MENA           PTSUNNY   64  55  72 NW9       29.99F
MOUNT IDA      CLOUDY    64  54  69 VRB7      29.94F
$$

ARZ009-017-025-026-028-232000-
NORTHEAST ARKANSAS

CITY           SKY/WX    TMP DP  RH WIND       PRES   REMARKS
CORNING        FAIR      55  55 100 NW6       29.88S FOG
JONESBORO      CLOUDY    56  54  93 NW6       29.88S
NEWPORT        CLOUDY    55  51  86 NW10      29.91R
WALNUT RIDGE   CLOUDY    56  53  90 NW8       29.88S
BLYTHEVILLE    LGT RAIN  57  54  89 CALM      29.88S
NW BLYTHEVILLE CLOUDY    59  55  88 CALM      29.88S FOG
$$

ARZ022-023-033-042-044-232000-
CENTRAL ARKANSAS

CITY           SKY/WX    TMP DP  RH WIND       PRES   REMARKS
LITTLE ROCK    CLOUDY    62  54  74 NW12      29.91F
N LITTLE ROCK    N/A     60  55  84 N6        29.88F
SEARCY         CLOUDY    56  55  97 N6        29.92R
HOT SPRINGS    CLOUDY    64  54  69 VRB7      29.94F
RUSSELLVILLE   CLOUDY    65  55  70 W15       29.91F
CLINTON        CLOUDY    63  52  67 VRB6G12   29.91F
$$

ARZ036-232000-
EAST ARKANSAS

CITY           SKY/WX    TMP DP  RH WIND       PRES   REMARKS
WEST MEMPHIS   LGT RAIN  57  57 100 VRB3      29.88S FOG
$$

ARZ050-053-066-070-073-232000-
SOUTHWEST ARKANSAS

CITY           SKY/WX    TMP DP  RH WIND       PRES   REMARKS
ARKADELPHIA    MOCLDY    66  55  67 NW12      29.96S
CAMDEN         CLOUDY    66  54  63 W8        29.95F
TEXARKANA      PTSUNNY   68  55  63 NW10G17   29.98F
EL DORADO      CLOUDY    66  56  70 NW8       29.96F
DE QUEEN       PTSUNNY   69  56  62 N9        29.96F
$$

ARZ056-057-069-232000-
SOUTHEAST ARKANSAS

CITY           SKY/WX    TMP DP  RH WIND       PRES   REMARKS
PINE BLUFF     CLOUDY    63  54  72 W12       29.91F
STUTTGART      LGT RAIN  58  56  93 NW14      29.91S FOG
MONTICELLO     CLOUDY    62  54  74 W9        29.93F

$$






USA.gov is the U.S. government's official web portal to all federal, state and local government web resources and services.